Deer Park, WA
on Monday, November 5, 2012

Monday
Previous Day Next Day
Daily Summary
 ActualAverageRecord
Temperature
Mean Temperature °F / °C 37°F / 3°C  
Max Temperature 58°F / 14°C 47°F / 8°C 58°F / 14°C (2012)
Min Temperature 33°F / 1°C 28°F / -2°C 3°F / -16°C (2003)
Degree Days
Heating Degree Days 19 28  
Month to date heating degree days 88 135  
Since 1 July heating degree days 1000 1203  
Cooling Degree Days 0 0  
Month to date cooling degree days 0 0  
Year to date cooling degree days 232 187  
Moisture
Dew Point 47°F / 8°C   
Average Humidity 89    
Maximum Humidity 100    
Minimum Humidity 77    
Precipitation
Precipitation 0.00 in / 0.00 cm 0.11 in / 2.79 cm 0.30 in / 0.76 cm (2005)
Month to date precipitation 0.15 0.51  
Year to date precipitation 20.15 16.57  
Wind
Wind Speed 4 mph / 6 km/h   
Max Wind Speed 13 mph / 21 km/h   
Max Gust Speed 17 mph / 27 km/h   
Visibility 7 miles / 12 kilometers   
Events Fog   

Key: T is trace of precipitation, MM is missing value
Source: NWS Daily Summary
Time(PST)TemperatureDew PointHumidity Pressure Visibility Wind DirectionWind SpeedGust SpeedPrecipitationEvents Conditions
12:30 AM 53.6°F / 12.0°C 48.2°F / 9.0°C 82% 30.25 in / 1024.3 hPa 10.0 miles / 16.1 kilometers South 5.8 mph / 9.3 km/h - N/A   Overcast
12:53 AM 53.1°F / 11.7°C 48.9°F / 9.4°C 86% 30.25 in / 1024.1 hPa 10.0 miles / 16.1 kilometers South 5.8 mph / 9.3 km/h - N/A   Overcast
1:14 AM 51.8°F / 11.0°C 48.2°F / 9.0°C 88% 30.23 in / 1023.6 hPa 10.0 miles / 16.1 kilometers SSE 5.8 mph / 9.3 km/h - N/A   Overcast
1:53 AM 51.1°F / 10.6°C 48.9°F / 9.4°C 92% 30.23 in / 1023.6 hPa 10.0 miles / 16.1 kilometers SSW 4.6 mph / 7.4 km/h - N/A   Mostly Cloudy
2:27 AM 51.8°F / 11.0°C 48.2°F / 9.0°C 88% 30.20 in / 1022.6 hPa 10.0 miles / 16.1 kilometers South 8.1 mph / 13.0 km/h - N/A   Scattered Clouds
2:53 AM 53.1°F / 11.7°C 50.0°F / 10.0°C 89% 30.20 in / 1022.5 hPa 10.0 miles / 16.1 kilometers South 9.2 mph / 14.8 km/h - N/A   Scattered Clouds
3:00 AM 51.8°F / 11.0°C 50.0°F / 10.0°C 94% 30.19 in / 1022.2 hPa 10.0 miles / 16.1 kilometers South 9.2 mph / 14.8 km/h - N/A   Mostly Cloudy
3:53 AM 53.1°F / 11.7°C 50.0°F / 10.0°C 89% 30.18 in / 1021.8 hPa 10.0 miles / 16.1 kilometers South 8.1 mph / 13.0 km/h - N/A   Scattered Clouds
4:01 AM 53.6°F / 12.0°C 50.0°F / 10.0°C 88% 30.18 in / 1021.9 hPa 10.0 miles / 16.1 kilometers South 4.6 mph / 7.4 km/h - N/A   Mostly Cloudy
4:27 AM 53.6°F / 12.0°C 50.0°F / 10.0°C 88% 30.17 in / 1021.6 hPa 10.0 miles / 16.1 kilometers SSW 9.2 mph / 14.8 km/h - N/A   Overcast
4:53 AM 54.0°F / 12.2°C 50.0°F / 10.0°C 86% 30.18 in / 1022.0 hPa 10.0 miles / 16.1 kilometers SSW 8.1 mph / 13.0 km/h - N/A   Overcast
5:53 AM 53.1°F / 11.7°C 50.0°F / 10.0°C 89% 30.20 in / 1022.5 hPa 10.0 miles / 16.1 kilometers Calm Calm - N/A   Overcast
6:05 AM 53.6°F / 12.0°C 50.0°F / 10.0°C 88% 30.19 in / 1022.2 hPa 10.0 miles / 16.1 kilometers Calm Calm - N/A   Overcast
6:38 AM 53.6°F / 12.0°C 50.0°F / 10.0°C 88% 30.21 in / 1022.9 hPa 10.0 miles / 16.1 kilometers SW 6.9 mph / 11.1 km/h - N/A   Overcast
6:53 AM 53.1°F / 11.7°C 50.0°F / 10.0°C 89% 30.22 in / 1023.2 hPa 10.0 miles / 16.1 kilometers SSW 5.8 mph / 9.3 km/h - N/A   Overcast
7:31 AM 53.6°F / 12.0°C 51.8°F / 11.0°C 94% 30.22 in / 1023.2 hPa 10.0 miles / 16.1 kilometers South 6.9 mph / 11.1 km/h - N/A   Overcast
7:53 AM 53.1°F / 11.7°C 51.1°F / 10.6°C 93% 30.24 in / 1023.8 hPa 10.0 miles / 16.1 kilometers SSE 5.8 mph / 9.3 km/h - N/A   Overcast
8:53 AM 54.0°F / 12.2°C 51.1°F / 10.6°C 90% 30.25 in / 1024.1 hPa 10.0 miles / 16.1 kilometers SW 8.1 mph / 13.0 km/h - N/A   Overcast
9:53 AM 54.0°F / 12.2°C 51.1°F / 10.6°C 90% 30.26 in / 1024.7 hPa 10.0 miles / 16.1 kilometers South 5.8 mph / 9.3 km/h - N/A   Overcast
10:53 AM 55.0°F / 12.8°C 51.1°F / 10.6°C 86% 30.27 in / 1024.8 hPa 10.0 miles / 16.1 kilometers South 3.5 mph / 5.6 km/h - N/A   Overcast
11:33 AM 55.4°F / 13.0°C 51.8°F / 11.0°C 88% 30.26 in / 1024.6 hPa 10.0 miles / 16.1 kilometers Calm Calm - N/A   Overcast
11:53 AM 55.9°F / 13.3°C 52.0°F / 11.1°C 87% 30.26 in / 1024.5 hPa 10.0 miles / 16.1 kilometers SSW 4.6 mph / 7.4 km/h - N/A   Mostly Cloudy
12:02 PM 57.2°F / 14.0°C 51.8°F / 11.0°C 82% 30.25 in / 1024.3 hPa 10.0 miles / 16.1 kilometers South 3.5 mph / 5.6 km/h - N/A   Scattered Clouds
12:09 PM 55.4°F / 13.0°C 51.8°F / 11.0°C 88% 30.26 in / 1024.6 hPa 10.0 miles / 16.1 kilometers South 3.5 mph / 5.6 km/h - N/A   Mostly Cloudy
12:16 PM 57.2°F / 14.0°C 51.8°F / 11.0°C 82% 30.26 in / 1024.6 hPa 10.0 miles / 16.1 kilometers SSW 5.8 mph / 9.3 km/h - N/A   Scattered Clouds
12:53 PM 57.0°F / 13.9°C 51.1°F / 10.6°C 81% 30.26 in / 1024.7 hPa 10.0 miles / 16.1 kilometers SW 5.8 mph / 9.3 km/h - N/A   Scattered Clouds
1:21 PM 57.2°F / 14.0°C 51.8°F / 11.0°C 82% 30.25 in / 1024.3 hPa 10.0 miles / 16.1 kilometers SSW 4.6 mph / 7.4 km/h - N/A   Mostly Cloudy
1:53 PM 57.9°F / 14.4°C 51.1°F / 10.6°C 78% 30.25 in / 1024.4 hPa 10.0 miles / 16.1 kilometers SW 8.1 mph / 13.0 km/h - N/A   Mostly Cloudy
2:20 PM 57.2°F / 14.0°C 50.0°F / 10.0°C 77% 30.25 in / 1024.3 hPa 10.0 miles / 16.1 kilometers SW 4.6 mph / 7.4 km/h - N/A   Partly Cloudy
2:53 PM 57.0°F / 13.9°C 50.0°F / 10.0°C 77% 30.25 in / 1024.4 hPa 10.0 miles / 16.1 kilometers SSW 4.6 mph / 7.4 km/h - N/A   Partly Cloudy
3:50 PM 53.6°F / 12.0°C 48.2°F / 9.0°C 82% 30.26 in / 1024.6 hPa 10.0 miles / 16.1 kilometers West 3.5 mph / 5.6 km/h - N/A   Mostly Cloudy
3:53 PM 53.1°F / 11.7°C 48.9°F / 9.4°C 86% 30.27 in / 1025.0 hPa 10.0 miles / 16.1 kilometers WSW 3.5 mph / 5.6 km/h - N/A   Mostly Cloudy
4:01 PM 53.6°F / 12.0°C 48.2°F / 9.0°C 82% 30.25 in / 1024.3 hPa 10.0 miles / 16.1 kilometers Calm Calm - N/A   Scattered Clouds
4:53 PM 46.9°F / 8.3°C 46.9°F / 8.3°C 100% 30.25 in / 1024.3 hPa 3.0 miles / 4.8 kilometers Calm Calm - N/A   Clear
5:16 PM 46.4°F / 8.0°C 44.6°F / 7.0°C 93% 30.23 in / 1023.6 hPa 2.0 miles / 3.2 kilometers Calm Calm - N/A   Clear
5:25 PM 46.4°F / 8.0°C 46.4°F / 8.0°C 100% 30.23 in / 1023.6 hPa 9.0 miles / 14.5 kilometers Calm Calm - N/A   Clear
5:39 PM 44.6°F / 7.0°C 44.6°F / 7.0°C 100% 30.23 in / 1023.6 hPa 1.5 miles / 2.4 kilometers Calm Calm - N/A   Clear
5:48 PM 42.8°F / 6.0°C 42.8°F / 6.0°C 100% 30.23 in / 1023.6 hPa 0.5 miles / 0.8 kilometers Calm Calm - N/A Fog Fog
5:53 PM 43.0°F / 6.1°C 43.0°F / 6.1°C 100% 30.26 in / 1024.5 hPa 0.5 miles / 0.8 kilometers Calm Calm - N/A Fog Fog
6:03 PM 44.6°F / 7.0°C 42.8°F / 6.0°C 93% 30.24 in / 1023.9 hPa 0.5 miles / 0.8 kilometers Calm Calm - N/A Fog Fog
6:50 PM 42.8°F / 6.0°C 42.8°F / 6.0°C 100% 30.23 in / 1023.6 hPa 1.5 miles / 2.4 kilometers Calm Calm - N/A   Partly Cloudy
6:53 PM 43.0°F / 6.1°C 42.1°F / 5.6°C 97% 30.25 in / 1024.4 hPa 2.0 miles / 3.2 kilometers Calm Calm - N/A   Partly Cloudy
6:56 PM 42.8°F / 6.0°C 42.8°F / 6.0°C 100% 30.23 in / 1023.6 hPa 1.0 miles / 1.6 kilometers Calm Calm - N/A   Mist
7:11 PM 39.2°F / 4.0°C 39.2°F / 4.0°C 100% 30.24 in / 1023.9 hPa 0.2 miles / 0.4 kilometers Calm Calm - N/A Fog Fog
7:53 PM 37.9°F / 3.3°C 37.9°F / 3.3°C 100% 30.26 in / 1024.7 hPa 0.2 miles / 0.4 kilometers Calm Calm - N/A Fog Fog
8:53 PM 39.0°F / 3.9°C 39.0°F / 3.9°C 100% 30.26 in / 1024.7 hPa 0.2 miles / 0.4 kilometers Calm Calm - N/A Fog Fog
9:53 PM 37.0°F / 2.8°C 37.0°F / 2.8°C 100% 30.26 in / 1024.5 hPa 0.2 miles / 0.4 kilometers Calm Calm - N/A Fog Fog
10:53 PM 35.1°F / 1.7°C 35.1°F / 1.7°C 100% 30.25 in / 1024.1 hPa 0.8 miles / 1.2 kilometers Calm Calm - N/A   Mist
11:53 PM 36.0°F / 2.2°C 36.0°F / 2.2°C 100% 30.25 in / 1024.2 hPa 0.5 miles / 0.8 kilometers Calm Calm - 0.00 in / 0.0 cm Fog Fog
Moon Phase
Nov. 05 Nov. 06 Nov. 13 Nov. 20 Nov. 28
Sunrise:06:41 AM (PST) Moon Rise:10:07 PM (PST)11/5
Sunset:04:24 PM (PST) Moon Set:12:04 PM (PST)11/5

Copyright © 2014 The Weather Underground, Inc.